• In Kazakhstan
  • List of Countries
  • For 7 days
  • Water Temperature
  • Satellite Maps
  • Weather Map
  • News
  • Weather Widgets
  • user-avatar
    Login

    Hourly Weather Newcastle

    Today, 23 October, Monday

    Time Temperature Precipitation Wind Pressure Humidity
    00:00 +14°C° 1 mm 2 mps 761 mmHg 96%
    01:00 +14°C° 1 mm 2 mps 761 mmHg 97%
    02:00 +14°C° 0.5 mm 2 mps 761 mmHg 97%
    03:00 +14°C° 0.5 mm 2 mps 761 mmHg 97%
    04:00 +12°C° 0 mm 3 mps 761 mmHg 96%
    05:00 +13°C° 0.1 mm 3 mps 761 mmHg 94%
    06:00 +14°C° 0.1 mm 3 mps 761 mmHg 92%
    07:00 +16°C° 0.1 mm 3 mps 762 mmHg 90%
    08:00 +17°C° 0.2 mm 4 mps 762 mmHg 81%
    09:00 +19°C° 0.2 mm 4 mps 762 mmHg 72%
    10:00 +21°C° 0 mm 4 mps 762 mmHg 62%
    11:00 +21°C° 0.1 mm 4 mps 762 mmHg 59%
    12:00 +22°C° 0.1 mm 4 mps 762 mmHg 57%
    13:00 +23°C° 0.1 mm 4 mps 761 mmHg 54%
    14:00 +22°C° 0 mm 4 mps 761 mmHg 56%
    15:00 +22°C° 0 mm 4 mps 761 mmHg 58%
    16:00 +21°C° 0 mm 3 mps 761 mmHg 59%
    17:00 +19°C° 0 mm 3 mps 762 mmHg 69%
    18:00 +17°C° 0 mm 2 mps 762 mmHg 79%
    19:00 +15°C° 0 mm 2 mps 763 mmHg 89%
    20:00 +15°C° 0 mm 2 mps 763 mmHg 91%
    21:00 +14°C° 0 mm 2 mps 764 mmHg 93%
    22:00 +14°C° 0 mm 2 mps 764 mmHg 95%
    23:00 +14°C° 0 mm 2 mps 764 mmHg 95%

    Tomorrow, 24 October, Tuesday

    Time Temperature Precipitation Wind Pressure Humidity
    00:00 +13°C° 0 mm 2 mps 764 mmHg 96%
    01:00 +13°C° 0 mm 2 mps 763 mmHg 97%
    02:00 +13°C° 0 mm 2 mps 763 mmHg 97%
    03:00 +12°C° 0 mm 2 mps 763 mmHg 97%
    04:00 +12°C° 0 mm 2 mps 763 mmHg 97%
    05:00 +14°C° 0 mm 2 mps 763 mmHg 90%
    06:00 +15°C° 0 mm 2 mps 763 mmHg 84%
    07:00 +17°C° 0 mm 2 mps 763 mmHg 77%
    08:00 +20°C° 0 mm 2 mps 763 mmHg 65%
    09:00 +24°C° 0 mm 2 mps 763 mmHg 53%
    10:00 +27°C° 0 mm 2 mps 763 mmHg 40%
    11:00 +28°C° 0 mm 2 mps 762 mmHg 37%
    12:00 +29°C° 0 mm 3 mps 762 mmHg 34%
    13:00 +30°C° 0 mm 4 mps 761 mmHg 31%
    14:00 +30°C° 0 mm 4 mps 761 mmHg 33%
    15:00 +29°C° 0 mm 5 mps 760 mmHg 35%
    16:00 +29°C° 0 mm 5 mps 760 mmHg 37%
    17:00 +26°C° 0 mm 5 mps 760 mmHg 48%
    18:00 +23°C° 0 mm 5 mps 760 mmHg 58%
    19:00 +20°C° 0 mm 6 mps 761 mmHg 69%
    20:00 +20°C° 0 mm 5 mps 761 mmHg 73%
    21:00 +19°C° 0 mm 5 mps 761 mmHg 77%
    22:00 +18°C° 0 mm 4 mps 761 mmHg 81%
    23:00 +18°C° 0 mm 4 mps 761 mmHg 76%

    Day after tomorrow, 25 October, Wednesday

    Time Temperature Precipitation Wind Pressure Humidity
    00:00 +17°C° 0 mm 4 mps 760 mmHg 72%
    01:00 +17°C° 0 mm 4 mps 760 mmHg 68%
    02:00 +18°C° 0 mm 4 mps 760 mmHg 63%
    03:00 +18°C° 0 mm 3 mps 759 mmHg 59%
    04:00 +19°C° 0 mm 3 mps 759 mmHg 55%
    05:00 +20°C° 0 mm 3 mps 759 mmHg 53%
    06:00 +21°C° 0 mm 3 mps 759 mmHg 51%
    07:00 +22°C° 0 mm 3 mps 760 mmHg 49%
    08:00 +25°C° 0 mm 3 mps 759 mmHg 43%
    09:00 +28°C° 0 mm 4 mps 759 mmHg 37%
    10:00 +30°C° 0 mm 4 mps 759 mmHg 30%
    11:00 +32°C° 0 mm 4 mps 758 mmHg 28%
    12:00 +33°C° 0 mm 4 mps 758 mmHg 26%
    13:00 +34°C° 0 mm 3 mps 757 mmHg 24%
    14:00 +31°C° 0.1 mm 3 mps 757 mmHg 34%
    15:00 +29°C° 0.1 mm 2 mps 757 mmHg 44%
    16:00 +27°C° 0.1 mm 2 mps 756 mmHg 53%
    17:00 +26°C° 0.2 mm 2 mps 756 mmHg 62%
    18:00 +24°C° 0.2 mm 2 mps 757 mmHg 70%
    19:00 +21°C° 0.2 mm 3 mps 757 mmHg 79%
    20:00 +20°C° 0.1 mm 3 mps 756 mmHg 81%
    21:00 +19°C° 0.1 mm 4 mps 756 mmHg 84%
    22:00 +19°C° 0.1 mm 4 mps 756 mmHg 86%
    23:00 +19°C° 0 mm 4 mps 755 mmHg 84%

    26 October, Thursday

    Time Temperature Precipitation Wind Pressure Humidity
    00:00 +19°C° 0 mm 4 mps 754 mmHg 82%
    01:00 +19°C° 0 mm 4 mps 753 mmHg 80%
    02:00 +19°C° 0 mm 4 mps 752 mmHg 72%
    03:00 +19°C° 0 mm 4 mps 752 mmHg 64%
    04:00 +20°C° 0 mm 4 mps 752 mmHg 56%
    05:00 +21°C° 0 mm 4 mps 752 mmHg 51%
    06:00 +22°C° 0 mm 5 mps 752 mmHg 47%
    07:00 +23°C° 0 mm 5 mps 752 mmHg 42%
    08:00 +27°C° 0 mm 5 mps 752 mmHg 37%
    09:00 +29°C° 0 mm 5 mps 752 mmHg 33%
    10:00 +32°C° 0 mm 5 mps 752 mmHg 28%
    11:00 +33°C° 0 mm 5 mps 752 mmHg 26%
    12:00 +33°C° 0 mm 5 mps 751 mmHg 23%
    13:00 +34°C° 0 mm 5 mps 751 mmHg 21%
    14:00 +33°C° 0 mm 5 mps 751 mmHg 28%
    15:00 +30°C° 0 mm 6 mps 751 mmHg 36%
    16:00 +28°C° 0 mm 6 mps 751 mmHg 44%
    17:00 +26°C° 0.2 mm 6 mps 752 mmHg 57%
    18:00 +22°C° 0.2 mm 6 mps 753 mmHg 70%
    19:00 +20°C° 0.2 mm 6 mps 754 mmHg 83%
    20:00 +19°C° 0.5 mm 5 mps 755 mmHg 87%
    21:00 +17°C° 0.5 mm 5 mps 756 mmHg 90%
    22:00 +18°C° 0.5 mm 4 mps 756 mmHg 93%
    23:00 +16°C° 0.1 mm 5 mps 757 mmHg 94%

    27 October, Friday

    Time Temperature Precipitation Wind Pressure Humidity
    00:00 +16°C° 0.1 mm 5 mps 757 mmHg 94%
    01:00 +16°C° 0.1 mm 5 mps 757 mmHg 95%
    02:00 +16°C° 0.1 mm 5 mps 757 mmHg 95%
    03:00 +16°C° 0.1 mm 5 mps 757 mmHg 94%
    04:00 +17°C° 0.1 mm 4 mps 757 mmHg 94%
    05:00 +17°C° 0 mm 4 mps 758 mmHg 91%
    06:00 +18°C° 0 mm 4 mps 758 mmHg 87%
    07:00 +19°C° 0 mm 4 mps 759 mmHg 84%
    08:00 +20°C° 0.1 mm 4 mps 759 mmHg 75%
    09:00 +22°C° 0.1 mm 4 mps 759 mmHg 67%
    10:00 +23°C° 0.1 mm 4 mps 759 mmHg 59%
    11:00 +25°C° 0 mm 4 mps 759 mmHg 56%
    12:00 +25°C° 0 mm 4 mps 759 mmHg 54%
    13:00 +26°C° 0 mm 4 mps 758 mmHg 51%
    14:00 +26°C° 0 mm 3 mps 758 mmHg 53%
    15:00 +25°C° 0 mm 3 mps 758 mmHg 55%
    16:00 +25°C° 0 mm 3 mps 758 mmHg 57%
    17:00 +22°C° 0 mm 3 mps 758 mmHg 68%
    18:00 +20°C° 0 mm 3 mps 759 mmHg 78%
    19:00 +18°C° 0 mm 3 mps 759 mmHg 88%
    20:00 +17°C° 0 mm 3 mps 759 mmHg 91%
    21:00 +17°C° 0 mm 3 mps 760 mmHg 94%
    22:00 +16°C° 0 mm 3 mps 760 mmHg 97%
    23:00 +16°C° 0 mm 3 mps 760 mmHg 97%

    28 October, Saturday

    Time Temperature Precipitation Wind Pressure Humidity
    00:00 +16°C° 0 mm 3 mps 760 mmHg 97%
    01:00 +16°C° 0 mm 3 mps 759 mmHg 98%
    02:00 +16°C° 0 mm 3 mps 759 mmHg 98%
    03:00 +16°C° 0 mm 3 mps 759 mmHg 98%
    04:00 +14°C° 0 mm 3 mps 759 mmHg 98%
    05:00 +17°C° 0 mm 3 mps 759 mmHg 93%
    06:00 +18°C° 0 mm 3 mps 759 mmHg 87%
    07:00 +19°C° 0 mm 3 mps 759 mmHg 82%
    08:00 +24°C° 0 mm 3 mps 759 mmHg 69%
    09:00 +27°C° 0 mm 3 mps 758 mmHg 56%
    10:00 +31°C° 0 mm 3 mps 758 mmHg 42%
    11:00 +33°C° 0 mm 4 mps 757 mmHg 37%
    12:00 +34°C° 0 mm 4 mps 757 mmHg 32%
    13:00 +35°C° 0 mm 5 mps 756 mmHg 27%
    14:00 +35°C° 0 mm 5 mps 756 mmHg 30%
    15:00 +34°C° 0 mm 5 mps 756 mmHg 33%
    16:00 +33°C° 0 mm 5 mps 756 mmHg 36%
    17:00 +29°C° 0 mm 4 mps 757 mmHg 47%
    18:00 +27°C° 0 mm 4 mps 757 mmHg 57%
    19:00 +24°C° 0 mm 3 mps 757 mmHg 68%
    20:00 +22°C° 0 mm 3 mps 758 mmHg 71%
    21:00 +21°C° 0 mm 3 mps 758 mmHg 75%
    22:00 +21°C° 0 mm 3 mps 758 mmHg 78%
    23:00 +20°C° 0 mm 3 mps 758 mmHg 79%

    29 October, Sunday

    Time Temperature Precipitation Wind Pressure Humidity
    00:00 +20°C° 0 mm 3 mps 757 mmHg 80%
    01:00 +19°C° 0 mm 3 mps 757 mmHg 80%
    02:00 +19°C° 0 mm 2 mps 757 mmHg 77%
    03:00 +19°C° 0 mm 2 mps 757 mmHg 73%
    04:00 +19°C° 0 mm 2 mps 757 mmHg 69%
    05:00 +20°C° 0 mm 2 mps 757 mmHg 64%
    06:00 +21°C° 0 mm 2 mps 757 mmHg 59%
    07:00 +24°C° 0 mm 2 mps 758 mmHg 54%
    08:00 +27°C° 0 mm 2 mps 757 mmHg 47%
    09:00 +29°C° 0 mm 2 mps 757 mmHg 41%
    10:00 +32°C° 0 mm 2 mps 757 mmHg 35%
    11:00 +35°C° 0 mm 3 mps 756 mmHg 30%
    12:00 +37°C° 0 mm 4 mps 755 mmHg 25%
    13:00 +40°C° 0 mm 4 mps 755 mmHg 20%
    14:00 +38°C° 0 mm 4 mps 754 mmHg 22%
    15:00 +39°C° 0 mm 5 mps 754 mmHg 24%
    16:00 +37°C° 0 mm 5 mps 754 mmHg 26%
    17:00 +35°C° 0 mm 5 mps 754 mmHg 32%
    18:00 +32°C° 0 mm 5 mps 755 mmHg 38%
    19:00 +28°C° 0 mm 5 mps 755 mmHg 45%
    20:00 +27°C° 0 mm 5 mps 755 mmHg 47%
    21:00 +26°C° 0 mm 4 mps 755 mmHg 49%
    22:00 +25°C° 0 mm 4 mps 755 mmHg 52%
    23:00 +24°C° 0 mm 3 mps 755 mmHg 52%
    Show more